DECAYED
Showing default

FLOCK 4Q 34, 58316 (Decayed)

Orbit data source: Space-Track

FLOCK 4Q 34, 58316 was a payload satellite owned by Planet (US) in LEO that was launched on Sat, 11 Nov 2023 UTC via an FALCON 9 launch vehicle from the Air Force Western Test Range (AFWTR). Payload-class satellites include a variety of spacecraft equipped with specific instruments for various scientific and technological missions. These include communications satellites like Starlink; space stations such as the ISS; scientific satellites like the Hubble; Earth observation satellites from companies like Planet Labs, Umbra, and HawkEye 360; GPS; miniature CubeSats for education and research; and military/defense satellites.

Not visible in the next 10 days
Identifier
58316, 2023-174BN
Orbit
Decayed
Country
Flag of USUS
Related business
Manufacturer
Planet
Mission
Decayed Commercial Imaging
Bus & Motor
CUBESAT 3U, Unknown motor
Mass
5.7 kg wet, 5.7 kg dry
Launch date (UTC)
2023-11-11 (3 years ago)
Launch vehicle
FALCON 9
Launch site
Air Force Western Test Range (AFWTR)
Object type
Payload
Rocket body
Debris
Shape & HBR
Box + 2 Pan, 1.0 m
Radar Cross Section
0.072 m², Medium (>0.1 m² and < 1m²)

Expand to show TLE details & history
Last TLE update: 1 month ago

TLE from 1 month ago
0 FLOCK 4Q 34
1 58316U 23174BN  26198.47139160  .11739632  24910-5  44994-3 0  9993
2 58316  97.3352 295.6880 0017440 225.5441 134.4434 16.42135447150816
Epoch: 2026-07-17T11:18Z
TLE epoch observation values (Epoch: 2026-07-17T11:18:48.234Z)
Latitude
-0.00003°
Longitude
-169.31099°
Altitude
171.38 km
Speed
7.799 km/s
True Right ascension
19h 42m 45s
True Declination
0° 00' 00"
Sunlit
Object was in full shadow at epoch
Visualization orbit readout
Latitude
Unknown
Longitude
Unknown
Altitude
Unknown
Speed
Unknown
Apparent Right ascension
Unknown
Apparent Declination
Unknown
Sunlit
N/A
Visualization observer readout
Local Sidereal Time
21:12:34
Azimuth
Unknown
Elevation
Unknown
Doppler factor
Unknown
Orbital elements
Apogee altitude
168.327 km
Perigee altitude
145.533 km
Semi-major axis
6,535.067 km
Eccentricity
0.00174
Inclination
97.3352°
RAAN
295.688°
Arg. of periapsis
225.5441°
True anomaly
134.58586°
Mean anomaly
134.4434°
Eccentric anomaly
134.51465°
Mean motion
4.10836 °/min
Orbital period
87.63 mins
BSTAR
0.00044994
Loading maneuver chart data...
Computing Atmospheric mass density...

Documentation

Showing up to 5 results
|